Cortez, CO

6:44 PM MST on November 11, 2019 (GMT -0700)
Cortez Municipal

Weather History for KCEZ - September, 2019

Change the Weather History Date:

Sunday, September 8, 2019

  Actual Average Record
Temperature  
Mean Temperature 73 °F 63 °F  
Max Temperature 85 °F 80 °F 89 °F (1998)
Min Temperature 60 °F 46 °F 36 °F (2001)
Degree Days  
Heating Degree Days 0 3  
Month to date heating degree days 0 17  
Since 1 July heating degree days 0 29  
Cooling Degree Days 8 1  
Month to date cooling degree days 63 11  
Year to date cooling degree days 543 420  
Growing Degree Days 22 (Base 50)    
Moisture  
Dew Point 44 °F    
Average Humidity 42    
Maximum Humidity 63    
Minimum Humidity 21    
Precipitation  
Precipitation T in 0.06 in 0.23 in (2002)
Month to date precipitation 0.07 0.41  
Year to date precipitation 9.85 8.85  
Sea Level Pressure  
Sea Level Pressure 29.78 in    
Wind  
Wind Speed 9 mph (South)    
Max Wind Speed 24 mph    
Max Gust Speed 34 mph    
Visibility 10 miles    
Events      
T = Trace of Precipitation, MM = Missing Value Source: NWS Daily Summary

Daily Weather History Graph

Daily Weather History Graph

Search for Another Location

Airport or City:

Astronomy

Sep. 08, 2019 Rise Set
Actual Time 6:50 AM MDT 7:33 PM MDT
Civil Twilight 6:24 AM MDT 7:59 PM MDT
Nautical Twilight 5:53 AM MDT 8:30 PM MDT
Astronomical Twilight 5:21 AM MDT 9:02 PM MDT
Moon 4:38 PM MDT (9/8) 1:39 AM MDT (9/8)
Length of Visible Light 13h 35m
Length of Day
12h 42m
Waxing Gibbous, 75% of the Moon is Illuminated
Sep 8
Waxing Gibbous
Sep 13
Full
Sep 21
Last Quarter
Sep 28
New
Oct 5
First Quarter

Hourly Weather History & Observations

Time (MDT) Temp. Dew Point Humidity Pressure Visibility Wind Dir Wind Speed Gust Speed Precip Events Conditions
12:53 AM 66.9 °F 45.0 °F 45% 29.83 in 10.0 mi South 8.1 mph - N/A   Clear
1:53 AM 63.0 °F 46.0 °F 54% 29.83 in 10.0 mi NNE 3.5 mph - N/A   Clear
2:53 AM 63.0 °F 46.0 °F 54% 29.82 in 10.0 mi Calm Calm - N/A   Scattered Clouds
3:53 AM 63.0 °F 46.9 °F 56% 29.82 in 10.0 mi NNW 3.5 mph - N/A   Scattered Clouds
4:53 AM 64.0 °F 46.9 °F 54% 29.81 in 10.0 mi ESE 3.5 mph - N/A   Scattered Clouds
5:53 AM 66.0 °F 46.9 °F 50% 29.81 in 10.0 mi East 3.5 mph - N/A   Scattered Clouds
6:53 AM 61.0 °F 46.0 °F 58% 29.84 in 10.0 mi Calm Calm - N/A   Clear
7:53 AM 62.1 °F 46.9 °F 58% 29.85 in 10.0 mi Variable 3.5 mph - N/A   Clear
8:53 AM 68.0 °F 48.0 °F 49% 29.83 in 10.0 mi North - - N/A   Clear
9:53 AM 66.9 °F 54.0 °F 63% 29.84 in 10.0 mi West 4.6 mph - 0.00 in   Overcast
10:53 AM 71.1 °F 51.1 °F 49% 29.84 in 10.0 mi SSE 9.2 mph - N/A   Overcast
11:53 AM 75.9 °F 52.0 °F 43% 29.81 in 10.0 mi SE 15.0 mph 21.9 mph N/A   Mostly Cloudy
12:53 PM 79.0 °F 48.9 °F 35% 29.80 in 10.0 mi South 15.0 mph 25.3 mph N/A   Partly Cloudy
1:53 PM 80.1 °F 46.9 °F 31% 29.78 in 10.0 mi SW 12.7 mph 20.7 mph N/A   Clear
2:53 PM 78.1 °F 46.9 °F 33% 29.75 in 10.0 mi SW 6.9 mph - N/A   Mostly Cloudy
3:53 PM 81.0 °F 45.0 °F 28% 29.71 in 10.0 mi South 12.7 mph 27.6 mph N/A   Mostly Cloudy
4:53 PM 82.0 °F 45.0 °F 27% 29.68 in 10.0 mi SSW 21.9 mph 28.8 mph N/A   Partly Cloudy
5:53 PM 80.1 °F 45.0 °F 29% 29.67 in 10.0 mi SSW 12.7 mph - N/A   Partly Cloudy
6:53 PM 78.1 °F 36.0 °F 22% 29.70 in 10.0 mi SW 11.5 mph - N/A   Clear
7:53 PM 72.0 °F 37.9 °F 29% 29.73 in 10.0 mi South 10.4 mph - N/A   Overcast
8:53 PM 70.0 °F 37.0 °F 30% 29.75 in 10.0 mi SSW 8.1 mph - N/A   Overcast
9:53 PM 70.0 °F 32.0 °F 25% 29.77 in 10.0 mi South 10.4 mph - N/A   Scattered Clouds
10:53 PM 64.9 °F 30.9 °F 28% 29.78 in 10.0 mi South 10.4 mph - N/A   Scattered Clouds
11:53 PM 64.0 °F 32.0 °F 30% 29.78 in 10.0 mi South 9.2 mph - N/A   Partly Cloudy